Location: ?????????
(54.7630°N, 39.4991°E)
Time: 16:58:57
(UTC+00:00)

Cosmos 1452 Rocket - Pass Details

Date: 14 April 2026
Orbit: 763 x 770 km, 74.1° (Epoch: 16 May)

Event Time Altitude Azimuth Distance (km) Brightness Sun altitude
Exits shadow 22:37:06 38° 135° (SE) 1,151 4.2 -23.7°
Maximum altitude 22:38:05 43° 106° (ESE) 1,077 4.2 -23.6°
Drops below altitude 10° 22:43:00 10° 37° (NE) 2,312 7.0 -23.4°
Sets 22:45:28 0° 31° (NNE) 3,242 8.2 -23.2°
